Find Starlink 35240

NORAD ID: 65655 Int'l Des: 2025-211 Owner: SPXS Country: US Constellation: starlink operational
LEOCIRCULARRETROGRADESSO

Live Position

Loading 3D Globe...

About Starlink 35240

Description loading...

Upcoming Passes

Passes for default location (London). Set your location on the main map for personalized predictions.

Altitude History

Loading altitude history...

Two-Line Element Set

1 65655U 25211D 26105.87247636 .00002545 00000-0 18054-3 0 9992
2 65655 97.6042 150.6686 0000952 105.4050 254.7282 15.05651915 32632
Epoch: Apr 15, 2026 • Age: 10 hours

Current Status

Altitude 561.4 km
Velocity 7.59 km/s
Sub-Earth Point 73.00°N, 47.75°E
Launch Date Sep 19, 2025
Age 0.5 years
Type internet

Technical Details

Classification Payload
Mass 575.00 kg
Dry Mass 530.00 kg
Total Mass 575.00 kg
Length 0.30 m
Diameter 4.10 m
Span 29.00 m
Shape Box + pan
Manufacturer SPXS
Bus Type Starlink V2MO
Phase Status In Orbit
Owner/State SPXS/US

Most Searched